Location: Avon School (historical)
(37.7514°N, 90.2201°W)
Time: 02:37:29
(UTC+00:00)

Vanguard 2 Rocket - Pass Details

Date: 14 November 2024
Orbit: 554 x 3296 km, 32.9° (Epoch: 03 December)

Event Time Altitude Azimuth Distance (km) Brightness Sun altitude
Rises 10:14:56 0° 194° (SSW) 4,773 10.5 -28.8°
Reaches altitude 10° 10:18:35 10° 180° (S) 4,192 10.3 -28.1°
Maximum altitude 10:27:30 24° 132° (SE) 4,009 10.6 -26.3°
Drops below altitude 10° 10:39:39 10° 88° (E) 5,890 12.1 -23.9°
Sets 10:46:06 0° 77° (ENE) 7,164 12.7 -22.7°
